Вернуться в каталог

FENGYUN 1C DEB

АктивенPO
NORAD 30663·DEBRIS·🇨🇳 China

Запущен May 10, 1999 с Taiyuan Satellite Launch Center

Loading…

Ближайшие Пролёты (ближайшие 24 часа)

TLE

СвежийSource: Space-Track

Эпоха: Sep 14, 2026, 04:13 UTC

1 30663U 99025APV 26257.17594272  .00001116  00000-0  86201-3 0  9991
2 30663  99.2938 151.6777 0645149 189.5862 169.2443 13.24813699926936

Отслеживайте FENGYUN 1C DEB в реальном времени с AllMySat

Download on the App Store